Location: Bellflower
(33.8817°N, 118.1170°W)
Time: 13:53:17
(UTC+00:00)

SKYMED 3 - Pass Details

Date: 23 November 2020
Orbit: 621 x 623 km, 97.9° (Epoch: 22 January)

Event Time Altitude Azimuth Distance (km) Brightness Sun altitude
Rises 13:17:50 0° 171° (S) 2,884 8.3 -15.5°
Reaches altitude 10° 13:20:01 10° 173° (S) 1,982 7.4 -15.1°
Maximum altitude 13:24:19 74° 259° (WSW) 650 4.5 -14.2°
Drops below altitude 10° 13:28:39 10° 344° (NNW) 1,996 6.9 -13.3°
Sets 13:30:52 0° 346° (NNW) 2,906 7.7 -12.9°
